Location: Lake Crest
(37.6062°N, 88.9176°W)
Time: 23:10:47
(UTC+00:00)

ATLAS 3B R/B - Pass Details

Date: 15 December 2019
Orbit: 1027 x 1168 km, 63.8° (Epoch: 19 January)

Event Time Altitude Azimuth Distance (km) Brightness Sun altitude
Rises 11:43:43 0° 195° (SSW) 3,833 5.7 -15.3°
Reaches altitude 10° 11:46:25 10° 191° (S) 2,864 5.0 -14.7°
Maximum altitude 11:52:56 53° 116° (ESE) 1,253 3.5 -13.5°
Drops below altitude 10° 11:59:20 10° 41° (NE) 2,827 5.2 -12.3°
Sets 12:02:00 0° 37° (NE) 3,780 5.8 -11.8°
